Flag for Germany Weather past 2 weeks in Meppen, Lower Saxony, Germany

Now
55 °F

Cool.


Feels Like: 55 °F
Forecast: 56 / 63 °F
Wind: 1 mph from West

Location: Meppen

Current Time: Jul 7, 2015 at 2:39:31 AM

Latest Report: Jul 7, 2015 at 1:00 AM


Visibility: 6 mi

Pressure: 30.05 "Hg

Humidity: 89%

Dew point: 52 °F

Location of MeppenLocation

Historic Weather in Meppen — Graph

°F

Meppen temperature yesterday

Maximum temperature yesterday: 72 °F (at 4:00 PM)
Minimum temperature yesterday: 58 °F (at 6:00 AM)
Average temperature yesterday: 65 °F

Past Weeks' High & Low Weather Summary

 TemperatureHumidityPressure
High96 °F (Jul 2, 6:00 PM)95% (Jun 23, 3:00 AM)30.27 "Hg (Jun 23, 3:00 AM)
Low46 °F (Jun 23, 4:00 AM)27% (Jul 2, 4:00 PM)29.68 "Hg (Jun 22, 10:00 PM)
Average66 °F69%30.07 "Hg
* Reported Jun 22 1:00 AM — Jul 7 1:00 AM, Meppen, Weather by CustomWeather, © 2015

Note: Actual official high and low records may vary slightly from our data, if they occured in-between our weather recording intervals... More about our weather records

Advertising

Meppen weather history for previous 24 hours

 ConditionsComfort  
Time TempWeatherWind HumidityBarometerVisibility
1:00 AM
Tue, Jul 7
55 °FCool.1 mph89%30.05 "Hg6 mi
12:00 AM57 °FCool.1 mph85%30.06 "Hg5 mi
10:00 PM
Mon, Jul 6
63 °FMild.N/A69%30.08 "Hg6 mi
9:00 PM69 °FMild.2 mph55%30.09 "Hg6 mi
7:00 PM71 °FMild.3 mph50%30.09 "Hg5 mi
6:00 PM72 °FMild.3 mph49%30.11 "Hg5 mi
4:00 PM72 °FScattered clouds.5 mph49%30.12 "Hg28 mi
3:00 PM72 °FPassing clouds.5 mph51%30.12 "Hg28 mi
2:00 PM72 °FScattered clouds.6 mph47%30.13 "Hg28 mi
1:00 PM71 °FPassing clouds.6 mph51%30.13 "Hg28 mi
12:00 PM68 °FPassing clouds.5 mph56%30.14 "Hg28 mi
10:00 AM67 °FPassing clouds.6 mph64%30.12 "Hg22 mi
9:00 AM64 °FPassing clouds.6 mph72%30.11 "Hg19 mi
8:00 AM62 °FPassing clouds.5 mph82%30.10 "Hg16 mi
7:00 AM59 °FPassing clouds.3 mph89%30.09 "Hg14 mi
6:00 AM58 °FOvercast.3 mph92%30.08 "Hg11 mi
4:00 AM59 °FCool.3 mph89%30.07 "Hg5 mi
3:00 AM59 °FCool.2 mph88%30.06 "Hg5 mi
2:00 AM61 °FCool.3 mph86%30.04 "Hg6 mi
Weather by CustomWeather, © 2015

See weather overviewHow to use our weather pages